Date String (YYYY-MM-DD hh:mm:ss) UTC,Instrument flags,absolute air pressure of the measurement (hPa),sample flow rate (lpm),inlet stack bypass flow (lpm),air temperature of the measurement (°C),ambient temperature measured by the external sensor (°C),aerosol sample conditioner tube jacket temperature (°C),OPC LED temperature (°C),internal box temperature (°C),relative humidity of the measurement (%),span deviation,mass concentration of particles derived from Lorenz-Mie calculation of OPC scattering (μg/m³),mass concentration of particles derived from Lorenz-Mie calculation of OPC scattering (μg/m³),mass concentration of particles derived from Lorenz-Mie calculation of OPC scattering (μg/m³)
DateTimeUTC,F1_M11,P_M11,Q1_M11,Q2_M11,T1_M11,T2_M11,T3_M11,T4_M11,T5_M11,U1_M11,ZSPAN_M11,X0_M11,X2_M11,X1_M11
2024-03-10 19:00:00,SystemResetWarning,0828.6,5.01,000.00,022.0,021.6,000.0,030.1,023.8,09.2,0000.0,0011.86,0004.49,0003.65
2024-03-10 19:01:00,SystemResetWarning,0828.6,5.00,000.00,022.0,021.6,000.0,030.1,023.8,09.0,0000.0,0011.89,0004.53,0003.69
2024-03-10 19:02:00,SystemResetWarning,0828.5,5.00,000.00,022.0,021.6,000.0,030.2,023.8,08.9,0000.0,0012.04,0004.59,0003.71
2024-03-10 19:03:00,SystemResetWarning,0828.6,5.00,000.00,022.0,021.6,000.0,030.2,023.8,09.4,0000.0,0012.98,0004.62,0003.70
2024-03-10 19:04:00,SystemResetWarning,0828.6,5.00,000.00,022.0,021.7,000.0,030.2,023.9,08.9,0000.0,0012.78,0004.59,0003.68
2024-03-10 19:05:00,SystemResetWarning,0828.6,5.00,000.00,022.1,021.7,000.0,030.2,023.9,09.3,0000.0,0012.26,0004.51,0003.65
2024-03-10 19:06:00,SystemResetWarning,0828.4,5.00,000.00,022.1,021.7,000.0,030.2,023.9,09.4,0000.0,0012.27,0004.48,0003.61
2024-03-10 19:07:00,SystemResetWarning,0828.4,5.00,000.00,022.1,021.7,000.0,030.3,023.9,09.9,0000.0,0011.99,0004.42,0003.54
2024-03-10 19:08:00,SystemResetWarning,0828.4,5.01,000.00,022.1,021.8,000.0,030.3,023.9,09.8,0000.0,0011.22,0004.32,0003.48
2024-03-10 19:09:00,SystemResetWarning,0828.4,5.01,000.00,022.1,021.8,000.0,030.3,024.0,09.6,0000.0,0011.17,0004.32,0003.43
2024-03-10 19:10:00,SystemResetWarning,0828.4,5.00,000.00,022.2,021.8,000.0,030.3,024.0,09.3,0000.0,0011.25,0004.26,0003.37
2024-03-10 19:11:00,SystemResetWarning,0828.4,4.99,000.00,022.2,021.8,000.0,030.4,024.0,09.2,0000.0,0010.71,0004.24,0003.30
2024-03-10 19:12:00,SystemResetWarning,0828.4,5.00,000.00,022.2,021.8,000.0,030.4,024.0,09.7,0000.0,0010.49,0004.17,0003.24
2024-03-10 19:13:00,SystemResetWarning,0828.4,4.99,000.00,022.2,021.8,000.0,030.4,024.0,09.7,0000.0,0010.52,0004.13,0003.19
2024-03-10 19:14:00,SystemResetWarning,0828.3,4.99,000.00,022.2,021.9,000.0,030.4,024.1,10.0,0000.0,0009.99,0004.08,0003.16
2024-03-10 19:15:00,SystemResetWarning,0828.3,5.01,000.00,022.3,021.9,000.0,030.4,024.1,08.7,0000.0,0009.68,0004.08,0003.14
2024-03-10 19:16:00,SystemResetWarning,0828.3,5.01,000.00,022.3,021.9,000.0,030.5,024.1,09.5,0000.0,0009.66,0004.09,0003.12
2024-03-10 19:17:00,SystemResetWarning,0828.3,5.01,000.00,022.3,021.9,000.0,030.5,024.1,08.6,0000.0,0009.88,0004.09,0003.10
2024-03-10 19:18:00,SystemResetWarning,0828.3,5.00,000.00,022.3,021.9,000.0,030.5,024.1,08.5,0000.0,0010.68,0004.08,0003.09
2024-03-10 19:19:00,SystemResetWarning,0828.3,4.99,000.00,022.3,021.9,000.0,030.5,024.1,08.3,0000.0,0011.88,0004.12,0003.07
2024-03-10 19:20:00,SystemResetWarning,0828.3,4.99,000.00,022.4,022.0,000.0,030.5,024.2,08.6,0000.0,0012.19,0004.09,0003.07
2024-03-10 19:21:00,SystemResetWarning,0828.3,5.00,000.00,022.4,022.0,000.0,030.5,024.2,09.2,0000.0,0013.06,0004.13,0003.05
2024-03-10 19:22:00,SystemResetWarning,0828.2,5.00,000.00,022.4,022.0,000.0,030.6,024.2,08.6,0000.0,0012.97,0004.09,0003.00
2024-03-10 19:23:00,SystemResetWarning,0828.2,5.00,000.00,022.4,022.0,000.0,030.6,024.2,08.6,0000.0,0013.28,0004.07,0002.96
2024-03-10 19:24:00,SystemResetWarning,0828.2,5.00,000.00,022.4,022.0,000.0,030.6,024.3,08.6,0000.0,0013.21,0004.02,0002.94
2024-03-10 19:25:00,SystemResetWarning,0828.2,5.00,000.00,022.5,022.1,000.0,030.6,024.3,08.8,0000.0,0013.72,0004.04,0002.93
2024-03-10 19:26:00,SystemResetWarning,0828.2,5.00,000.00,022.5,022.1,000.0,030.6,024.3,08.7,0000.0,0013.78,0004.00,0002.93
2024-03-10 19:27:00,SystemResetWarning,0828.2,4.99,000.00,022.5,022.1,000.0,030.7,024.3,08.0,0000.0,0014.00,0004.02,0002.94
2024-03-10 19:28:00,SystemResetWarning,0828.2,5.00,000.00,022.5,022.1,000.0,030.7,024.3,08.0,0000.0,0014.10,0004.02,0002.94
2024-03-10 19:29:00,SystemResetWarning,0828.2,5.00,000.00,022.6,022.1,000.0,030.7,024.4,08.1,0000.0,0013.49,0004.05,0002.92
2024-03-10 19:30:00,SystemResetWarning,0828.2,5.00,000.00,022.6,022.2,000.0,030.7,024.4,08.1,0000.0,0012.32,0003.99,0002.91
2024-03-10 19:31:00,SystemResetWarning,0828.1,5.00,000.00,022.6,022.2,000.0,030.8,024.4,08.1,0000.0,0011.73,0003.97,0002.91
2024-03-10 19:32:00,SystemResetWarning,0828.2,5.00,000.00,022.6,022.2,000.0,030.8,024.4,08.2,0000.0,0011.40,0003.96,0002.92
2024-03-10 19:33:00,SystemResetWarning,0828.1,5.00,000.00,022.6,022.2,000.0,030.8,024.4,07.9,0000.0,0011.92,0003.96,0002.96
2024-03-10 19:34:00,SystemResetWarning,0828.0,5.00,000.00,022.6,022.2,000.0,030.8,024.5,07.9,0000.0,0011.72,0003.99,0002.96
2024-03-10 19:35:00,SystemResetWarning,0828.1,5.00,000.00,022.7,022.2,000.0,030.8,024.5,07.6,0000.0,0011.60,0004.02,0002.95
2024-03-10 19:36:00,SystemResetWarning,0828.1,5.00,000.00,022.7,022.3,000.0,030.8,024.5,07.6,0000.0,0011.58,0004.04,0002.93
2024-03-10 19:37:00,SystemResetWarning,0828.0,5.00,000.00,022.7,022.3,000.0,030.9,024.5,08.3,0000.0,0011.62,0004.04,0002.91
2024-03-10 19:38:00,SystemResetWarning,0828.0,4.99,000.00,022.7,022.3,000.0,030.9,024.5,08.2,0000.0,0011.70,0004.05,0002.89
2024-03-10 19:39:00,SystemResetWarning,0828.0,4.99,000.00,022.7,022.3,000.0,030.9,024.6,07.7,0000.0,0011.55,0004.07,0002.88
2024-03-10 19:40:00,SystemResetWarning,0828.0,5.00,000.00,022.8,022.3,000.0,030.9,024.6,07.8,0000.0,0011.65,0004.05,0002.89
2024-03-10 19:41:00,SystemResetWarning,0827.9,5.00,000.00,022.8,022.3,000.0,030.9,024.6,07.8,0000.0,0011.59,0004.06,0002.90
2024-03-10 19:42:00,SystemResetWarning,0827.8,5.00,000.00,022.8,022.4,000.0,031.0,024.6,07.8,0000.0,0011.82,0004.07,0002.89
2024-03-10 19:43:00,SystemResetWarning,0827.8,5.01,000.00,022.8,022.4,000.0,031.0,024.6,07.6,0000.0,0011.48,0004.06,0002.86
2024-03-10 19:44:00,SystemResetWarning,0827.8,5.00,000.00,022.8,022.4,000.0,031.0,024.7,07.9,0000.0,0011.43,0004.10,0002.84
2024-03-10 19:45:00,SystemResetWarning,0827.8,5.00,000.00,022.9,022.4,000.0,031.0,024.7,07.8,0000.0,0011.53,0004.07,0002.84
2024-03-10 19:46:00,SystemResetWarning,0827.8,4.99,000.00,022.9,022.4,000.0,031.1,024.7,07.3,0000.0,0012.08,0004.03,0002.82
2024-03-10 19:47:00,SystemResetWarning,0827.8,5.00,000.00,022.9,022.5,000.0,031.1,024.7,07.1,0000.0,0011.72,0004.00,0002.80
2024-03-10 19:48:00,SystemResetWarning,0827.8,4.99,000.00,022.9,022.5,000.0,031.1,024.7,07.3,0000.0,0011.42,0003.98,0002.78
2024-03-10 19:49:00,SystemResetWarning,0827.8,4.99,000.00,022.9,022.5,000.0,031.1,024.8,07.2,0000.0,0011.22,0003.95,0002.76
2024-03-10 19:50:00,SystemResetWarning,0827.8,5.00,000.00,022.9,022.5,000.0,031.1,024.8,07.4,0000.0,0011.72,0003.98,0002.74
2024-03-10 19:51:00,SystemResetWarning,0827.8,5.00,000.00,023.0,022.5,000.0,031.1,024.8,07.5,0000.0,0011.81,0003.97,0002.72
2024-03-10 19:52:00,SystemResetWarning,0827.8,5.01,000.00,023.0,022.5,000.0,031.2,024.8,07.3,0000.0,0011.86,0004.00,0002.70
2024-03-10 19:53:00,SystemResetWarning,0827.8,5.01,000.00,023.0,022.5,000.0,031.2,024.8,07.2,0000.0,0012.87,0004.03,0002.69
2024-03-10 19:54:00,SystemResetWarning,0827.8,5.00,000.00,023.0,022.6,000.0,031.2,024.8,07.5,0000.0,0013.38,0003.98,0002.68
2024-03-10 19:55:00,SystemResetWarning,0827.8,4.99,000.00,023.0,022.6,000.0,031.2,024.8,07.5,0000.0,0013.84,0003.93,0002.65
2024-03-10 19:56:00,SystemResetWarning,0827.7,5.00,000.00,023.1,022.6,000.0,031.2,024.9,07.2,0000.0,0013.72,0003.92,0002.62
2024-03-10 19:57:00,SystemResetWarning,0827.7,5.00,000.00,023.1,022.6,000.0,031.3,024.9,07.3,0000.0,0013.94,0003.94,0002.61
2024-03-10 19:58:00,SystemResetWarning,0827.7,5.00,000.00,023.1,022.6,000.0,031.3,024.9,07.2,0000.0,0013.66,0003.96,0002.60
2024-03-10 19:59:00,SystemResetWarning,0827.7,5.00,000.00,023.1,022.6,000.0,031.3,024.9,07.5,0000.0,0014.18,0003.93,0002.59
